DB0WXR Weather Reports


time (UTC)temp
C
wind
direction
speed
KPH
gust
KPH
rain 1hr
cm
rain 24hr
cm
rain mn
cm
humidity
%
barometer
mb
20191021023011 11 47 0.0 0.0 0.00 0.69 0.05 99 1010.5
20191021021010 11 47 0.0 0.0 0.00 0.69 0.05 99 1010.1
20191021014010 11 47 0.0 1.6 0.00 0.69 0.05 99 1010.0
20191021011010 11 47 0.0 1.6 0.00 0.69 0.05 99 1009.7
20191021010010 11 47 0.0 1.6 0.00 0.69 0.05 99 1009.2
20191021005009 11 47 1.6 4.8 0.00 0.69 0.05 99 1009.2
20191021003009 11 46 0.0 0.0 0.00 0.69 0.05 99 1009.5
20191021002010 11 46 0.0 0.0 0.00 0.69 0.05 99 1009.5
20191020234014 11 46 0.0 1.6 0.00 0.69 0.05 99 1009.5
20191020232013 11 46 0.0 0.0 0.03 0.69 0.05 99 1010.0
20191020231013 11 46 0.0 3.2 0.05 0.69 0.05 99 1009.6
20191020230013 11 47 0.0 6.4 0.05 0.69 0.05 99 1009.0
20191020223013 11 32 0.0 1.6 0.10 0.66 0.05 99 1009.5
20191020222012 11 32 0.0 3.2 0.10 0.66 0.05 99 1009.5
20191020220012 11 32 0.0 1.6 0.05 0.61 0.00 99 1009.7
20191020215012 11 32 0.0 0.0 0.05 0.61 0.61 99 1009.8
20191020214012 11 32 0.0 0.0 0.03 0.58 0.58 99 1009.8
20191020213012 11 32 0.0 0.0 0.00 0.56 0.56 99 1009.5
20191020211011 11 32 0.0 0.0 0.00 0.56 0.56 99 1009.2
20191020204011 11 32 0.0 0.0 0.00 0.56 0.56 99 1009.0
20191020203011 11 32 0.0 1.6 0.00 0.56 0.56 99 1008.8
20191020201011 11 32 0.0 1.6 0.00 0.56 0.56 98 1008.4
20191020195010 11 32 0.0 1.6 0.00 0.56 0.56 98 1008.4
20191020192010 11 32 0.0 3.2 0.00 0.56 0.56 98 1008.3
20191020185010 10 32 0.0 3.2 0.00 0.56 0.56 98 1008.4
20191020183009 10 32 0.0 1.6 0.00 0.56 0.56 98 1008.6
20191020182009 10 32 0.0 1.6 0.00 0.56 0.56 98 1008.4
20191020181009 10 32 0.0 3.2 0.03 0.56 0.56 98 1008.1
20191020180011 10 32 0.0 3.2 0.03 0.56 0.56 98 1007.8
20191020174014 10 32 0.0 4.8 0.03 0.56 0.56 98 1007.7
20191020172014 10 32 0.0 6.4 0.03 0.56 0.56 98 1007.8
20191020165013 10 27 0.0 3.2 0.03 0.53 0.53 98 1007.7
20191020161013 10 17 0.0 1.6 0.13 0.53 0.53 98 1007.6
20191020160013 10 17 1.6 6.4 0.13 0.53 0.53 98 1007.5
20191020151012 10 9 0.0 3.2 0.05 0.43 0.43 98 1007.7
20191020150012 11 9 0.0 6.4 0.05 0.43 0.43 98 1007.7
20191020143011 11 24 1.6 4.8 0.15 0.48 0.43 98 1007.6
20191020141011 11 5 0.0 4.8 0.15 0.43 0.38 98 1007.7
20191020134011 11 355 0.0 3.2 0.15 0.43 0.30 98 1007.8
20191020133011 11 355 0.0 4.8 0.15 0.41 0.28 98 1007.9
20191020132010 11 355 0.0 3.2 0.10 0.36 0.23 98 1007.9
20191020131010 11 355 0.0 3.2 0.08 0.33 0.23 98 1008.0
20191020125010 11 355 0.0 0.0 0.05 0.53 0.18 98 1008.2
20191020123010 11 355 0.0 4.8 0.00 0.51 0.15 98 1008.1
20191020122010 11 355 0.0 3.2 0.00 0.51 0.15 98 1007.8
20191020120009 12 324 0.0 3.2 0.05 0.51 0.15 98 1007.8
20191020115009 12 319 1.6 3.2 0.05 0.61 0.15 98 1007.9
20191020112014 12 215 0.0 0.0 0.08 0.61 0.15 98 1007.8
20191020111014 12 215 0.0 0.0 0.08 0.61 0.13 98 1008.0
20191020110013 12 215 0.0 1.6 0.08 0.58 0.10 99 1008.2
20191020104014 12 215 0.0 1.6 0.05 0.56 0.08 98 1008.2
20191020102013 12 215 0.0 0.0 0.05 0.53 0.05 98 1008.1
20191020100013 12 215 0.0 1.6 0.00 0.51 0.03 98 1008.2
20191020095013 12 215 0.0 0.0 0.00 0.51 0.03 98 1008.1
20191020093012 12 215 0.0 0.0 0.00 0.51 0.03 98 1008.2
20191020085012 12 215 0.0 0.0 0.00 0.51 0.03 99 1008.0
20191020084012 12 215 0.0 0.0 0.00 0.51 0.03 99 1008.0
20191020083012 12 215 0.0 1.6 0.00 0.51 0.03 99 1007.9
20191020082011 11 215 0.0 0.0 0.00 0.51 0.03 99 1007.9
20191020081011 11 215 0.0 0.0 0.00 0.51 0.03 98 1007.6
20191020080011 11 215 0.0 0.0 0.00 0.51 0.03 98 1007.4
20191020075011 11 215 0.0 0.0 0.00 0.53 0.03 98 1007.6
20191020074011 11 215 0.0 0.0 0.00 0.53 0.03 98 1007.8
20191020071011 10 215 0.0 0.0 0.00 0.53 0.03 98 1007.6
20191020065010 10 215 0.0 0.0 0.00 0.56 0.03 98 1007.6
20191020064010 10 215 0.0 0.0 0.00 0.56 0.03 98 1007.6
20191020063010 10 215 0.0 0.0 0.00 0.56 0.03 98 1007.4
20191020062010 10 215 0.0 0.0 0.00 0.56 0.03 98 1007.6
20191020060010 10 215 0.0 0.0 0.00 0.56 0.03 98 1007.4
20191020055009 10 215 0.0 0.0 0.00 0.56 0.03 98 1007.3
20191020052009 10 215 0.0 0.0 0.00 0.56 0.03 98 1007.1
20191020051009 10 215 0.0 0.0 0.00 0.56 0.03 98 1007.1
20191020045014 10 215 0.0 0.0 0.03 0.61 0.03 98 1006.8
20191020044014 10 215 0.0 0.0 0.03 0.61 0.03 98 1006.8
20191020042013 10 215 0.0 0.0 0.03 0.61 0.03 98 1006.7
20191020040013 10 215 0.0 0.0 0.03 0.61 0.03 98 1006.8
20191020033013 10 215 0.0 0.0 0.00 0.58 0.00 98 1006.7
20191020031012 10 215 0.0 0.0 0.00 0.58 0.00 98 1006.6
20191020024012 10 215 0.0 0.0 0.00 0.58 0.00 98 1006.6